�������l�o���
Date,Time,MP-1(��Sv/h),MP-2(��Sv/h),MP-3(��Sv/h),MP-4(��Sv/h),MP-5(��Sv/h),MP-6(��Sv/h),MP-7(��Sv/h),MP-8(��Sv/h),����,����(m/s),���J
2021/09/23,00:00,0.590,0.882,0.567,1.081,0.770,0.364,0.627,0.586,�k�k��,2.8,��
2021/09/23,00:10,0.588,0.883,0.565,1.081,0.769,0.362,0.626,0.587,�k��,0.6,��
2021/09/23,00:20,0.589,0.881,0.564,1.080,0.769,0.362,0.626,0.588,�k�k��,1.2,�L
2021/09/23,00:30,0.588,0.884,0.565,1.079,0.771,0.362,0.626,0.587,�k,2.3,�L
2021/09/23,00:40,0.587,0.878,0.565,1.076,0.765,0.364,0.624,0.587,�k,2.5,�L
2021/09/23,00:50,0.588,0.878,0.563,1.078,0.767,0.363,0.626,0.585,�k�k��,2.2,�L
2021/09/23,01:00,0.589,0.878,0.564,1.079,0.767,0.362,0.626,0.587,���k��,2.5,��
2021/09/23,01:10,0.587,0.876,0.563,1.076,0.766,0.363,0.627,0.587,�k��,1.9,��
2021/09/23,01:20,0.588,0.876,0.562,1.079,0.768,0.364,0.625,0.586,�k��,2.2,��
2021/09/23,01:30,0.590,0.879,0.564,1.077,0.766,0.363,0.627,0.587,�k�k��,4.2,�L
2021/09/23,01:40,0.587,0.878,0.563,1.077,0.769,0.363,0.627,0.587,�k�k��,3.6,�L
2021/09/23,01:50,0.587,0.880,0.565,1.079,0.769,0.363,0.625,0.587,�k�k��,3.2,��
2021/09/23,02:00,0.587,0.877,0.564,1.079,0.767,0.363,0.627,0.587,�k,3.6,�L
2021/09/23,02:10,0.586,0.878,0.565,1.076,0.766,0.363,0.628,0.587,�k�k��,3.9,�L
2021/09/23,02:20,0.586,0.877,0.563,1.077,0.766,0.364,0.625,0.588,�k,2.9,��
2021/09/23,02:30,0.588,0.879,0.563,1.076,0.766,0.363,0.626,0.588,�k,3.3,��
2021/09/23,02:40,0.587,0.878,0.564,1.077,0.764,0.362,0.626,0.589,�k,4.0,��
2021/09/23,02:50,0.587,0.879,0.563,1.076,0.766,0.363,0.626,0.587,�k,3.8,��
2021/09/23,03:00,0.588,0.877,0.564,1.077,0.766,0.363,0.625,0.588,�k��,2.5,��
2021/09/23,03:10,0.589,0.878,0.562,1.077,0.766,0.361,0.625,0.586,���k��,3.5,�L
2021/09/23,03:20,0.584,0.872,0.562,1.073,0.755,0.360,0.618,0.583,��,2.3,�L
2021/09/23,03:30,0.572,0.848,0.550,1.051,0.742,0.358,0.617,0.580,-,CALM,�L
2021/09/23,03:40,0.572,0.842,0.549,1.046,0.741,0.359,0.617,0.580,�k,2.0,�L
2021/09/23,03:50,0.573,0.848,0.551,1.045,0.742,0.357,0.617,0.581,�k�k��,2.6,�L
2021/09/23,04:00,0.575,0.852,0.550,1.045,0.744,0.358,0.618,0.581,�k,3.4,�L
2021/09/23,04:10,0.577,0.851,0.549,1.043,0.745,0.358,0.616,0.581,�k�k��,3.5,��
2021/09/23,04:20,0.576,0.852,0.549,1.047,0.744,0.359,0.616,0.580,�k�k��,3.4,��
2021/09/23,04:30,0.577,0.851,0.548,1.045,0.745,0.359,0.616,0.580,�k,3.0,�L
2021/09/23,04:40,0.576,0.852,0.549,1.048,0.743,0.357,0.617,0.579,�k�k��,1.4,��
2021/09/23,04:50,0.577,0.853,0.553,1.047,0.745,0.356,0.618,0.581,�k��,0.6,�L
2021/09/23,05:00,0.575,0.854,0.550,1.048,0.745,0.358,0.616,0.579,�k,1.4,��
2021/09/23,05:10,0.576,0.855,0.552,1.046,0.745,0.358,0.616,0.579,�k,1.7,��
2021/09/23,05:20,0.577,0.856,0.552,1.049,0.746,0.357,0.621,0.581,�k,2.0,��
2021/09/23,05:30,0.576,0.855,0.552,1.047,0.744,0.358,0.617,0.581,�k,1.2,��
2021/09/23,05:40,0.576,0.856,0.550,1.048,0.746,0.357,0.616,0.582,�k,1.2,��
2021/09/23,05:50,0.578,0.858,0.551,1.050,0.747,0.357,0.618,0.581,�k�k��,0.9,��
2021/09/23,06:00,0.576,0.858,0.553,1.046,0.749,0.359,0.616,0.581,�k,0.6,��
2021/09/23,06:10,0.577,0.857,0.550,1.047,0.747,0.357,0.617,0.582,�k,1.2,��
2021/09/23,06:20,0.576,0.859,0.552,1.050,0.748,0.358,0.618,0.581,�k,0.9,��
2021/09/23,06:30,0.578,0.855,0.550,1.050,0.747,0.357,0.621,0.581,�k�k��,0.9,��
2021/09/23,06:40,0.576,0.859,0.551,1.049,0.747,0.358,0.617,0.581,�k�k��,0.9,��
2021/09/23,06:50,0.577,0.853,0.552,1.050,0.748,0.356,0.619,0.582,�k�k��,0.6,��
2021/09/23,07:00,0.577,0.857,0.551,1.048,0.747,0.357,0.618,0.581,�k,0.8,��
2021/09/23,07:10,0.578,0.859,0.551,1.049,0.747,0.359,0.617,0.582,�k�k��,1.1,��
2021/09/23,07:20,0.578,0.859,0.552,1.048,0.749,0.358,0.618,0.582,�k�k��,1.2,��
2021/09/23,07:30,0.578,0.858,0.550,1.050,0.748,0.357,0.618,0.584,�k��,0.6,��
2021/09/23,07:40,0.578,0.858,0.550,1.053,0.747,0.357,0.617,0.582,���쓌,1.1,��
2021/09/23,07:50,0.577,0.858,0.552,1.050,0.748,0.358,0.618,0.581,���쓌,0.9,��
2021/09/23,08:00,0.578,0.858,0.552,1.050,0.750,0.357,0.619,0.583,�쓌,1.9,��
2021/09/23,08:10,0.578,0.858,0.550,1.050,0.748,0.357,0.617,0.582,�쓌,2.0,��
2021/09/23,08:20,0.577,0.857,0.550,1.050,0.746,0.355,0.618,0.580,�쓌,2.0,��
2021/09/23,08:30,0.578,0.860,0.549,1.050,0.747,0.357,0.618,0.580,���쓌,1.7,��
2021/09/23,08:40,0.577,0.859,0.550,1.050,0.748,0.357,0.619,0.580,���쓌,1.2,��
2021/09/23,08:50,0.576,0.858,0.550,1.049,0.748,0.355,0.619,0.580,�쓌,2.2,��
2021/09/23,09:00,0.578,0.858,0.552,1.052,0.749,0.357,0.619,0.580,�쓌,1.2,��
2021/09/23,09:10,0.577,0.859,0.551,1.052,0.750,0.358,0.618,0.580,�쓌,2.6,��
2021/09/23,09:20,0.579,0.864,0.551,1.051,0.750,0.357,0.619,0.581,�쓌,2.2,��
2021/09/23,09:30,0.580,0.860,0.549,1.052,0.748,0.359,0.619,0.580,��쓌,2.8,��
2021/09/23,09:40,0.579,0.862,0.551,1.051,0.750,0.356,0.621,0.582,��쓌,1.7,��
2021/09/23,09:50,0.580,0.860,0.552,1.051,0.751,0.357,0.619,0.581,��쓌,2.3,��
2021/09/23,10:00,0.579,0.863,0.553,1.051,0.752,0.356,0.620,0.580,��쓌,4.3,��
2021/09/23,10:10,0.581,0.862,0.554,1.052,0.751,0.358,0.618,0.581,�쓌,4.1,��
2021/09/23,10:20,0.581,0.866,0.554,1.052,0.753,0.357,0.619,0.582,��,3.8,��
2021/09/23,10:30,0.582,0.864,0.553,1.055,0.752,0.359,0.620,0.582,��쓌,4.3,��
2021/09/23,10:40,0.580,0.865,0.555,1.053,0.753,0.358,0.620,0.581,��쓌,5.1,��
2021/09/23,10:50,0.583,0.868,0.556,1.055,0.754,0.358,0.620,0.581,��쓌,5.9,��
2021/09/23,11:00,0.582,0.869,0.555,1.055,0.754,0.359,0.622,0.583,��쓌,5.7,��
2021/09/23,11:10,0.582,0.868,0.556,1.054,0.754,0.359,0.621,0.581,��쓌,6.0,��
2021/09/23,11:20,0.582,0.867,0.556,1.056,0.757,0.358,0.621,0.583,��쓌,5.7,��
2021/09/23,11:30,0.583,0.872,0.557,1.056,0.756,0.358,0.621,0.583,��쓌,5.9,��
2021/09/23,11:40,0.585,0.871,0.555,1.057,0.758,0.358,0.620,0.581,��쓌,6.4,��
2021/09/23,11:50,0.584,0.871,0.557,1.056,0.756,0.359,0.622,0.582,��쓌,5.5,��
2021/09/23,12:00,0.585,0.871,0.558,1.054,0.756,0.358,0.623,0.584,��쓌,6.8,��
2021/09/23,12:10,0.584,0.870,0.559,1.056,0.757,0.359,0.623,0.583,��쓌,6.2,��
2021/09/23,12:20,0.585,0.871,0.558,1.057,0.759,0.360,0.623,0.585,��쓌,6.1,��
2021/09/23,12:30,0.585,0.874,0.558,1.057,0.760,0.358,0.623,0.584,��쓌,6.0,��
2021/09/23,12:40,0.585,0.873,0.557,1.054,0.758,0.360,0.623,0.585,��쓌,5.4,��
2021/09/23,12:50,0.584,0.873,0.557,1.059,0.760,0.360,0.623,0.583,��쓌,6.8,��
2021/09/23,13:00,0.585,0.875,0.558,1.058,0.759,0.359,0.623,0.584,��쓌,7.3,��
2021/09/23,13:10,0.584,0.876,0.559,1.057,0.762,0.359,0.624,0.583,��쓌,7.6,��
2021/09/23,13:20,0.587,0.874,0.558,1.056,0.759,0.359,0.623,0.583,��쓌,8.5,��
2021/09/23,13:30,0.586,0.876,0.559,1.061,0.760,0.360,0.623,0.583,��쓌,7.2,��
2021/09/23,13:40,0.585,0.876,0.559,1.057,0.760,0.361,0.624,0.584,��,7.3,��
2021/09/23,13:50,0.586,0.875,0.559,1.059,0.761,0.361,0.624,0.583,��,6.6,��
2021/09/23,14:00,0.587,0.876,0.559,1.058,0.761,0.361,0.622,0.583,��,6.4,��
2021/09/23,14:10,0.585,0.874,0.560,1.058,0.761,0.359,0.623,0.585,��,7.2,��
2021/09/23,14:20,0.584,0.876,0.559,1.061,0.761,0.361,0.624,0.583,��,6.9,��
2021/09/23,14:30,0.587,0.875,0.560,1.057,0.762,0.362,0.624,0.582,��,6.7,��
2021/09/23,14:40,0.587,0.877,0.560,1.058,0.760,0.362,0.624,0.585,��,5.2,��
2021/09/23,14:50,0.587,0.876,0.560,1.060,0.762,0.363,0.624,0.582,��쓌,6.6,��
2021/09/23,15:00,0.587,0.877,0.562,1.060,0.761,0.363,0.623,0.584,��쓌,6.0,��
2021/09/23,15:10,0.586,0.877,0.561,1.060,0.760,0.362,0.626,0.583,��,6.4,��
2021/09/23,15:20,0.587,0.878,0.558,1.063,0.761,0.360,0.624,0.583,��쓌,7.1,��
2021/09/23,15:30,0.585,0.876,0.560,1.063,0.762,0.361,0.624,0.584,��쓌,7.1,��
2021/09/23,15:40,0.585,0.876,0.560,1.061,0.762,0.362,0.624,0.583,��쓌,7.3,��
2021/09/23,15:50,0.585,0.879,0.559,1.063,0.762,0.361,0.624,0.583,��쓌,7.5,��
2021/09/23,16:00,0.588,0.875,0.561,1.059,0.762,0.361,0.622,0.584,��쓌,8.2,��
2021/09/23,16:10,0.587,0.878,0.560,1.062,0.763,0.361,0.623,0.583,��쓌,8.5,��
2021/09/23,16:20,0.586,0.877,0.560,1.060,0.761,0.361,0.623,0.583,��쓌,8.8,��
2021/09/23,16:30,0.587,0.877,0.559,1.059,0.760,0.361,0.623,0.583,��쓌,9.7,��
2021/09/23,16:40,0.586,0.880,0.558,1.058,0.761,0.360,0.623,0.583,��,9.8,��
2021/09/23,16:50,0.586,0.878,0.560,1.059,0.761,0.361,0.624,0.583,��,9.2,��
2021/09/23,17:00,0.587,0.878,0.560,1.062,0.762,0.361,0.624,0.583,��,8.6,��
2021/09/23,17:10,0.586,0.878,0.560,1.059,0.762,0.360,0.624,0.584,��,9.5,��
2021/09/23,17:20,0.588,0.878,0.559,1.062,0.762,0.361,0.623,0.586,��,7.9,��
2021/09/23,17:30,0.586,0.881,0.561,1.063,0.762,0.361,0.624,0.585,��,7.2,��
2021/09/23,17:40,0.587,0.880,0.560,1.063,0.763,0.362,0.625,0.586,��,6.3,��
2021/09/23,17:50,0.585,0.880,0.560,1.064,0.764,0.361,0.626,0.585,��,7.2,��
2021/09/23,18:00,0.586,0.882,0.562,1.063,0.764,0.362,0.626,0.586,��,5.8,��
2021/09/23,18:10,0.587,0.880,0.563,1.064,0.764,0.363,0.625,0.585,��,6.1,��
2021/09/23,18:20,0.585,0.882,0.563,1.064,0.764,0.362,0.626,0.587,��쐼,5.9,��
2021/09/23,18:30,0.587,0.879,0.564,1.061,0.765,0.362,0.626,0.585,��쐼,6.2,��
2021/09/23,18:40,0.590,0.881,0.563,1.065,0.767,0.364,0.626,0.585,��쐼,5.2,��
2021/09/23,18:50,0.589,0.880,0.564,1.064,0.765,0.363,0.627,0.586,�쐼,3.8,��
2021/09/23,19:00,0.588,0.881,0.562,1.065,0.764,0.362,0.625,0.586,���쐼,3.4,��
2021/09/23,19:10,0.587,0.881,0.564,1.065,0.767,0.362,0.625,0.586,�쐼,3.2,��
2021/09/23,19:20,0.587,0.881,0.562,1.062,0.765,0.360,0.624,0.586,���쐼,3.2,��
2021/09/23,19:30,0.590,0.879,0.564,1.064,0.764,0.361,0.626,0.586,���쐼,5.1,��
2021/09/23,19:40,0.591,0.880,0.563,1.063,0.763,0.363,0.626,0.586,��,6.7,��
2021/09/23,19:50,0.591,0.881,0.564,1.063,0.766,0.361,0.626,0.586,���k��,5.0,�L
2021/09/23,20:00,0.590,0.881,0.563,1.063,0.765,0.362,0.625,0.587,���k��,5.7,��
2021/09/23,20:10,0.590,0.878,0.563,1.064,0.765,0.361,0.627,0.585,���k��,5.8,��
2021/09/23,20:20,0.591,0.880,0.563,1.064,0.767,0.362,0.624,0.584,���k��,4.4,��
2021/09/23,20:30,0.589,0.879,0.565,1.065,0.766,0.361,0.625,0.586,�k��,2.2,��
2021/09/23,20:40,0.590,0.881,0.563,1.063,0.765,0.363,0.626,0.585,���k��,3.7,��
2021/09/23,20:50,0.590,0.879,0.564,1.065,0.765,0.363,0.626,0.585,���k��,3.8,��
2021/09/23,21:00,0.589,0.880,0.564,1.067,0.767,0.363,0.624,0.587,��,3.7,��
2021/09/23,21:10,0.591,0.881,0.562,1.065,0.764,0.361,0.625,0.586,���k��,3.4,��
2021/09/23,21:20,0.589,0.880,0.564,1.065,0.766,0.363,0.626,0.587,���k��,4.3,��
2021/09/23,21:30,0.591,0.881,0.564,1.064,0.766,0.361,0.625,0.585,���k��,6.0,��
2021/09/23,21:40,0.590,0.878,0.563,1.065,0.765,0.363,0.627,0.586,���k��,7.1,��
2021/09/23,21:50,0.590,0.880,0.564,1.063,0.766,0.362,0.626,0.585,���k��,7.2,��
2021/09/23,22:00,0.590,0.880,0.564,1.065,0.766,0.362,0.624,0.584,���k��,8.3,��
2021/09/23,22:10,0.590,0.880,0.563,1.064,0.767,0.362,0.627,0.587,�k��,7.2,��
2021/09/23,22:20,0.592,0.880,0.563,1.065,0.763,0.362,0.626,0.588,�k��,4.8,��
2021/09/23,22:30,0.590,0.881,0.563,1.067,0.766,0.361,0.625,0.586,�k��,3.1,��
2021/09/23,22:40,0.588,0.879,0.563,1.067,0.764,0.362,0.625,0.587,�k��,3.1,��
2021/09/23,22:50,0.589,0.880,0.565,1.064,0.765,0.362,0.626,0.586,�k�k��,3.2,��
2021/09/23,23:00,0.588,0.880,0.563,1.065,0.765,0.361,0.624,0.586,�k��,2.2,��
2021/09/23,23:10,0.591,0.880,0.562,1.066,0.764,0.361,0.625,0.586,�k��,4.6,��
2021/09/23,23:20,0.589,0.878,0.562,1.063,0.765,0.360,0.625,0.587,�k��,5.3,��
2021/09/23,23:30,0.589,0.879,0.564,1.064,0.763,0.361,0.626,0.586,���k��,6.0,��
2021/09/23,23:40,0.588,0.879,0.564,1.066,0.764,0.362,0.626,0.586,���k��,6.4,��
2021/09/23,23:50,0.589,0.879,0.562,1.066,0.766,0.361,0.626,0.586,���k��,4.6,��
